Zurück zum Katalog

STARLINK-5884

AktivKommunikationVLEO
NORAD 55957·PAYLOAD·🇺🇸 United States

Gestartet Mar 17, 2023 von Vandenberg Space Force Base

Loading…

Nächste Überflüge (nächste 24 Stunden)

TLE

AktuellSource: CelesTrak SupGP

Epoche: Sep 14, 2026, 21:43 UTC

1 55957C 23037AV  26257.90534722 -.00028808  00000+0 -24140-2 0  2577
2 55957  70.0005 147.4396 0003173 260.7816 122.9390 14.98348020    19

Verfolge STARLINK-5884 in Echtzeit mit AllMySat

Download on the App Store